Weather History for Branson, MO

Change the Weather History Date:

Sunday, October 21, 2012

  Actual Average (KHRO) Record (KHRO)
Temperature  
Mean Temperature 68 °F 58 °F  
Max Temperature 80 °F 69 °F 88 °F (1927)
Min Temperature 57 °F 46 °F 20 °F (1952)
Degree Days  
Heating Degree Days 0 8  
Month to date heating degree days 125  
Since 1 July heating degree days 168  
Cooling Degree Days 4 1  
Month to date cooling degree days 27  
Year to date cooling degree days 1406  
Growing Degree Days 18 (Base 50)    
Moisture  
Dew Point 55 °F    
Average Humidity 67    
Maximum Humidity 83    
Minimum Humidity 55    
Precipitation  
Precipitation 0.00 in 0.12 in 1.76 in (1900)
Month to date precipitation 2.34  
Year to date precipitation 35.50  
Snow  
Snow 0.00 in 0.00 in - ()
Month to date snowfall 0.0  
Since 1 July snowfall 0.0  
Since 1 September snowfall 0.0  
Snow Depth -    
Sea Level Pressure  
Sea Level Pressure 29.89 in    
Wind  
Wind Speed 6 mph (SSE)    
Max Wind Speed 12 mph    
Max Gust Speed 17 mph    
Visibility 10 miles    
Events      
T = Trace of Precipitation, MM = Missing Value Source: NWS Daily Summary

Daily Weather History Graph

Daily Weather History Graph

Search for Another Location

Airport:

Trip Planner

Search our weather history database for the weather conditions in past years. The results will help you decide how hot, cold, wet, or windy it might be!

Date:

Astronomy

Oct. 21, 2012 Rise Set
Actual Time 7:26 AM CDT 6:28 PM CDT
Civil Twilight 6:59 AM CDT 6:54 PM CDT
Nautical Twilight 6:29 AM CDT 7:24 PM CDT
Astronomical Twilight 5:59 AM CDT 7:54 PM CDT
Moon 1:44 PM CDT (10/21) No Moon Set
Length of Visible Light 11h 54m
Length of Day
11h 02m
Waxing Crescent, 45% of the Moon is Illuminated
Oct 21
Waxing Crescent
Oct 21
First Quarter
Oct 29
Full
Nov 6
Last Quarter
Nov 13
New

Hourly Weather History & Observations

Time (CDT) Temp. Heat Index Dew Point Humidity Pressure Visibility Wind Dir Wind Speed Gust Speed Precip Events Conditions
12:15 AM 60.8 °F - 44.6 °F 55% 29.86 in 10.0 mi South 5.8 mph - N/A   Clear
12:35 AM 59.0 °F - 46.4 °F 63% 29.87 in 10.0 mi SSE 3.5 mph - N/A   Partly Cloudy
12:55 AM 59.0 °F - 46.4 °F 63% 29.87 in 10.0 mi SSE 5.8 mph - N/A   Partly Cloudy
1:15 AM 59.0 °F - 46.4 °F 63% 29.86 in 10.0 mi SSE 6.9 mph - N/A   Partly Cloudy
1:35 AM 59.0 °F - 46.4 °F 63% 29.86 in 10.0 mi SSE 5.8 mph - N/A   Partly Cloudy
1:55 AM 59.0 °F - 46.4 °F 63% 29.86 in 10.0 mi SSE 6.9 mph - N/A   Partly Cloudy
2:15 AM 60.8 °F - 46.4 °F 59% 29.86 in 10.0 mi SSE 6.9 mph - N/A   Partly Cloudy
2:35 AM 62.6 °F - 46.4 °F 55% 29.86 in 10.0 mi SSE 5.8 mph - N/A   Partly Cloudy
2:55 AM 62.6 °F - 46.4 °F 55% 29.87 in 10.0 mi SSE 5.8 mph - N/A   Scattered Clouds
3:15 AM 59.0 °F - 46.4 °F 63% 29.87 in 10.0 mi SE 3.5 mph - N/A   Scattered Clouds
3:35 AM 57.2 °F - 48.2 °F 72% 29.87 in 10.0 mi SE 4.6 mph - N/A   Scattered Clouds
4:15 AM 59.0 °F - 46.4 °F 63% 29.87 in 10.0 mi SSE 6.9 mph - N/A   Mostly Cloudy
4:35 AM 60.8 °F - 46.4 °F 59% 29.87 in 10.0 mi SSE 8.1 mph - N/A   Mostly Cloudy
4:55 AM 60.8 °F - 46.4 °F 59% 29.87 in 10.0 mi SSE 8.1 mph - N/A   Overcast
5:15 AM 60.8 °F - 48.2 °F 63% 29.87 in 10.0 mi SSE 6.9 mph - N/A   Overcast
5:35 AM 60.8 °F - 48.2 °F 63% 29.87 in 10.0 mi SSE 8.1 mph - N/A   Mostly Cloudy
5:55 AM 60.8 °F - 48.2 °F 63% 29.88 in 10.0 mi SSE 6.9 mph - N/A   Partly Cloudy
6:15 AM 60.8 °F - 48.2 °F 63% 29.88 in 10.0 mi SSE 6.9 mph - N/A   Scattered Clouds
6:35 AM 59.0 °F - 48.2 °F 67% 29.89 in 10.0 mi SE 5.8 mph - N/A   Mostly Cloudy
6:50 AM 59.0 °F - 48.2 °F 67% 29.89 in 10.0 mi SE 5.8 mph - N/A   Mostly Cloudy
7:45 AM 57.2 °F - 48.2 °F 72% 29.89 in 10.0 mi SE 5.8 mph - N/A   Mostly Cloudy
8:45 AM 59.0 °F - 48.2 °F 67% 29.92 in 10.0 mi ESE 5.8 mph - N/A   Partly Cloudy
9:45 AM 64.4 °F - 51.8 °F 64% 29.93 in 10.0 mi ESE 4.6 mph - N/A   Scattered Clouds
10:45 AM 71.6 °F - 55.4 °F 57% 29.93 in 10.0 mi SE 5.8 mph - N/A   Scattered Clouds
11:46 AM 75.2 °F - 62.6 °F 65% 29.93 in 10.0 mi Calm Calm - N/A   Overcast
12:45 PM 78.8 °F - 66.2 °F 65% 29.91 in 10.0 mi South 8.1 mph - N/A   Overcast
1:45 PM 80.6 °F 82.3 °F 64.4 °F 58% 29.89 in 10.0 mi SSW 5.8 mph - N/A   Overcast
2:45 PM 80.6 °F 82.3 °F 64.4 °F 58% 29.88 in 10.0 mi SSW 10.4 mph - N/A   Mostly Cloudy
3:45 PM 77.0 °F - 64.4 °F 65% 29.89 in 10.0 mi South 11.5 mph - N/A   Overcast
4:45 PM 75.2 °F - 64.4 °F 69% 29.89 in 10.0 mi SSE 11.5 mph - N/A   Overcast
5:45 PM 75.2 °F - 64.4 °F 69% 29.89 in 10.0 mi SSE 10.4 mph - N/A   Mostly Cloudy
6:50 PM 71.6 °F - 64.4 °F 78% 29.90 in 10.0 mi SSE 11.5 mph 17.3 mph N/A   Scattered Clouds
7:50 PM 71.6 °F - 62.6 °F 73% 29.90 in 10.0 mi SSE 9.2 mph 16.1 mph N/A   Partly Cloudy
8:45 PM 69.8 °F - 62.6 °F 78% 29.91 in 10.0 mi SSE 9.2 mph - N/A   Clear
9:15 PM 69.8 °F - 62.6 °F 78% 29.91 in 10.0 mi SSE 10.4 mph - N/A   Clear
9:35 PM 69.8 °F - 62.6 °F 78% 29.92 in 10.0 mi SSE 6.9 mph - N/A   Clear
9:55 PM 69.8 °F - 62.6 °F 78% 29.93 in 10.0 mi SSE 5.8 mph - N/A   Clear
10:15 PM 69.8 °F - 62.6 °F 78% 29.93 in 10.0 mi SSE 4.6 mph - N/A   Partly Cloudy
10:35 PM 69.8 °F - 62.6 °F 78% 29.93 in 10.0 mi SSE 4.6 mph - N/A   Clear
10:55 PM 69.8 °F - 62.6 °F 78% 29.94 in 10.0 mi South 5.8 mph - N/A   Clear
11:15 PM 68.0 °F - 62.6 °F 83% 29.94 in 10.0 mi South 4.6 mph - N/A   Partly Cloudy
11:35 PM 69.8 °F - 62.6 °F 78% 29.94 in 10.0 mi South 4.6 mph - N/A   Partly Cloudy
11:55 PM 69.8 °F - 62.6 °F 78% 29.94 in 10.0 mi South 5.8 mph - N/A   Clear